Regional Weather Roundup
Issued by NWS Raleigh/Durham, NC

Home | Current Version | Previous Version | Text Only | Print | Product List | Glossary On
Versions: 1 2 3 4 5 6 7 8 9 10 11 12 13 14 15 16 17 18 19 20 21 22 23 24 25 26 27 28 29 30 31 32 33 34 35 36 37 38 39 40 41 42 43 44 45 46 47 48 49 50
929
ASUS42 KRAH 250310
RWRRAH
NORTH CAROLINA WEATHER ROUNDUP
NATIONAL WEATHER SERVICE RALEIGH NC
1100 PM EDT TUE APR 24 2018

NOTE: "FAIR" INDICATES FEW OR NO CLOUDS BELOW 12,000 FEET WITH NO
SIGNIFICANT WEATHER AND/OR OBSTRUCTIONS TO VISIBILITY.

NCZ001-053-055-056-065-067-250400-
WESTERN NORTH CAROLINA

CITY           SKY/WX    TMP DP  RH WIND       PRES   REMARKS
ASHEVILLE      LGT RAIN  55  53  93 N8        29.86S
JEFFERSON      DRIZZLE   51  51  99 CALM      29.86S
MORGANTON      CLOUDY    58  58 100 NW3       29.85S
HICKORY        CLOUDY    58  58 100 CALM      29.81F
RUTHERFORDTON  CLOUDY    58  58 100 CALM      29.83S
MOUNT AIRY     CLOUDY    58  55  87 NE9       29.83F
BOONE          CLOUDY    52  51  96 CALM      29.86F
$$

NCZ021-022-025-041-071-084-088-250400-
CENTRAL NORTH CAROLINA

CITY           SKY/WX    TMP DP  RH WIND       PRES   REMARKS
CHARLOTTE      CLOUDY    62  62 100 CALM      29.80S
GREENSBORO     LGT RAIN  59  59 100 NE8       29.79F
WINSTON-SALEM  CLOUDY    59  58  96 NE8       29.81F
RALEIGH-DURHAM CLOUDY    63  63 100 SE7       29.83F
FORT BRAGG     NOT AVBL
FAYETTEVILLE   FAIR      62  60  93 SE5       29.79F
BURLINGTON     CLOUDY    63  61  93 SE8       29.80F
LAURINBURG     FAIR      63  56  78 S8        29.80S
$$

NCZ011-015-027-028-043-044-047-080-103-250400-
NORTHEASTERN NORTH CAROLINA

CITY           SKY/WX    TMP DP  RH WIND       PRES   REMARKS
ROCKY MT-WILSO CLOUDY    64  62  93 VRB6      29.82F
GREENVILLE     CLOUDY    64  64 100 S5        29.86F
WASHINGTON     MOCLDY    65  63  91 CALM      29.84F
ELIZABETH CITY CLOUDY    65  64  97 SE12      29.89F
MANTEO         CLOUDY    61  59  93 SE16G26   29.90F
CAPE HATTERAS  MOCLDY    67  67 100 SE8       29.87F FOG
$$

NCZ078-087-090-091-093-098-101-250400-
SOUTHEASTERN NORTH CAROLINA

CITY           SKY/WX    TMP DP  RH WIND       PRES   REMARKS
LUMBERTON      MOCLDY    63  59  87 SE6       29.80S
GOLDSBORO      NOT AVBL
KINSTON        CLOUDY    64  64  99 E3        29.83F
KENANSVILLE    MOCLDY    64  63  94 S3        29.83S
NEW BERN       CLOUDY    65  63  93 SE6       29.84F
CHERRY POINT   NOT AVBL
BEAUFORT       HVY RAIN  68  66  93 SE9G16    29.83F FOG
JACKSONVILLE   FAIR      65  62  90 SW6       29.83R
WILMINGTON     FAIR      63  59  87 S9        29.83F
$$





USA.gov is the U.S. government's official web portal to all federal, state and local government web resources and services.